Showing default

ION SCV-018, 64575

Orbit data source: Space-Track

ION SCV-018, 64575 is a payload satellite owned by D-ORBIT (IT) in SSO that was launched on Mon, 23 Jun 2025 UTC via an FALCON 9 launch vehicle from the Air Force Western Test Range (AFWTR). Payload-class satellites include a variety of spacecraft equipped with specific instruments for various scientific and technological missions. These include communications satellites like Starlink; space stations such as the ISS; scientific satellites like the Hubble; Earth observation satellites from companies like Planet Labs, Umbra, and HawkEye 360; GPS; miniature CubeSats for education and research; and military/defense satellites.

Loading next visibility...
Identifier
64575, 2025-135AZ
Orbit
SSO
Country
Flag of ITIT
Related business
Manufacturer
D-ORBIT
Mission
Operational Commercial Technology
Bus & Motor
ION-SC, PM200
Mass
220 kg wet, 150 kg dry
Launch date (UTC)
2025-06-23 (9 months ago)
Launch vehicle
FALCON 9
Launch site
Air Force Western Test Range (AFWTR)
Object type
Payload
Rocket body
Debris
Shape & HBR
Box, 0.2 m
Radar Cross Section
0.240 m², Large (>1 m²)

Expand to show TLE details & history
Last TLE update: 15 hours ago

TLE from 15 hours ago
0 ION SCV-018
1 64575U 25135AZ  26071.74500421  .00001817  00000-0  17377-3 0  9997
2 64575  97.7648 187.7701 0011280 251.6579 108.3415 14.94444925 39525
Epoch: 2026-03-12T17:52Z
TLE epoch observation values (Epoch: 2026-03-12T17:52:48.363Z)
Latitude
Longitude
109.1781°
Altitude
589.621 km
Speed
7.564 km/s
True Right ascension
12h 31m 04s
True Declination
0° 00' 00"
Sunlit
Object was in full shadow at epoch
Visualization orbit readout
Latitude
Unknown
Longitude
Unknown
Altitude
Unknown
Speed
Unknown
Apparent Right ascension
Unknown
Apparent Declination
Unknown
Sunlit
N/A
Visualization observer readout
Local Sidereal Time
12:55:41
Azimuth
Unknown
Elevation
Unknown
Doppler factor
Unknown
Orbital elements
Apogee altitude
588.962 km
Perigee altitude
573.262 km
Semi-major axis
6,959.249 km
Eccentricity
0.00113
Inclination
97.7648°
RAAN
187.7701°
Arg. of periapsis
251.6579°
True anomaly
108.46414°
Mean anomaly
108.3415°
Eccentric anomaly
108.40282°
Mean motion
3.73852 °/min
Orbital period
96.29 mins
BSTAR
0.00017377
Loading maneuver chart data...
Computing Atmospheric mass density...
Loading historical data...
Loading historical data...
Loading historical data...
Loading historical data...
Loading historical data...
Loading historical data...
Loading historical data...

Documentation

Showing up to 5 results
|